When you browse on this site, cookies collect data to enhance your experience and personalize the content and advertising you see.
Visit our Privacy Policy to learn more. By continuing to use the site, you agree to this use of cookies and data.
  • In United Kingdom
  • List of Countries
  • For 7 days
  • Water Temperature
  • Weather Map
  • Weather Widgets
  • user-avatar
    Login

    Hourly Weather Consett

    Today, 5 April, Sunday

    Time Temperature Precipitation Wind Pressure Humidity
    00:00 +5°C° 0 mm 3 mps 741 mmHg 89%
    01:00 +4°C° 0 mm 3 mps 741 mmHg 88%
    02:00 +4°C° 0 mm 3 mps 741 mmHg 88%
    03:00 +3°C° 0 mm 3 mps 740 mmHg 88%
    04:00 +3°C° 0 mm 4 mps 740 mmHg 88%
    05:00 +3°C° 0 mm 4 mps 740 mmHg 89%
    06:00 +3°C° 0 mm 4 mps 740 mmHg 87%
    07:00 +5°C° 0 mm 5 mps 739 mmHg 81%
    08:00 +7°C° 0 mm 6 mps 739 mmHg 75%
    09:00 +7°C° 0 mm 8 mps 739 mmHg 69%
    10:00 +10°C° 0 mm 8 mps 738 mmHg 66%
    11:00 +11°C° 0 mm 8 mps 738 mmHg 64%
    12:00 +12°C° 0 mm 9 mps 737 mmHg 61%
    13:00 +13°C° 0 mm 8 mps 737 mmHg 61%
    14:00 +13°C° 0 mm 8 mps 736 mmHg 62%
    15:00 +13°C° 0 mm 8 mps 735 mmHg 62%
    16:00 +13°C° 0 mm 8 mps 735 mmHg 65%
    17:00 +12°C° 0 mm 7 mps 735 mmHg 68%
    18:00 +13°C° 0 mm 6 mps 734 mmHg 72%
    19:00 +11°C° 0 mm 7 mps 734 mmHg 72%
    20:00 +11°C° 0 mm 7 mps 734 mmHg 73%
    21:00 +10°C° 0 mm 7 mps 734 mmHg 74%
    22:00 +10°C° 0 mm 7 mps 733 mmHg 76%
    23:00 +10°C° 0 mm 7 mps 733 mmHg 79%

    Tomorrow, 6 April, Monday

    Time Temperature Precipitation Wind Pressure Humidity
    00:00 +10°C° 0 mm 7 mps 732 mmHg 81%
    01:00 +10°C° 0 mm 8 mps 732 mmHg 81%
    02:00 +10°C° 0 mm 8 mps 732 mmHg 81%
    03:00 +10°C° 0 mm 8 mps 732 mmHg 81%
    04:00 +9°C° 0.2 mm 8 mps 733 mmHg 82%
    05:00 +7°C° 0.2 mm 8 mps 733 mmHg 83%
    06:00 +6°C° 0.2 mm 7 mps 734 mmHg 84%
    07:00 +6°C° 0 mm 7 mps 735 mmHg 81%
    08:00 +7°C° 0 mm 8 mps 736 mmHg 77%
    09:00 +7°C° 0 mm 8 mps 737 mmHg 73%
    10:00 +9°C° 0 mm 8 mps 738 mmHg 68%
    11:00 +9°C° 0 mm 8 mps 739 mmHg 63%
    12:00 +10°C° 0 mm 8 mps 740 mmHg 57%
    13:00 +9°C° 0 mm 8 mps 741 mmHg 58%
    14:00 +9°C° 0 mm 7 mps 742 mmHg 59%
    15:00 +9°C° 0 mm 7 mps 743 mmHg 61%
    16:00 +8°C° 0 mm 6 mps 744 mmHg 64%
    17:00 +8°C° 0 mm 5 mps 744 mmHg 67%
    18:00 +7°C° 0 mm 4 mps 745 mmHg 71%
    19:00 +6°C° 0 mm 4 mps 746 mmHg 75%
    20:00 +5°C° 0 mm 3 mps 747 mmHg 79%
    21:00 +4°C° 0 mm 3 mps 748 mmHg 83%
    22:00 +5°C° 0 mm 2 mps 749 mmHg 83%
    23:00 +4°C° 0 mm 2 mps 749 mmHg 84%

    Day after tomorrow, 7 April, Tuesday

    Time Temperature Precipitation Wind Pressure Humidity
    00:00 +4°C° 0 mm 2 mps 750 mmHg 85%
    01:00 +4°C° 0 mm 2 mps 750 mmHg 86%
    02:00 +4°C° 0 mm 2 mps 750 mmHg 86%
    03:00 +5°C° 0 mm 1 mps 750 mmHg 86%
    04:00 +5°C° 0 mm 1 mps 751 mmHg 86%
    05:00 +4°C° 0 mm 2 mps 751 mmHg 86%
    06:00 +4°C° 0 mm 2 mps 751 mmHg 85%
    07:00 +5°C° 0 mm 2 mps 751 mmHg 79%
    08:00 +7°C° 0 mm 3 mps 752 mmHg 73%
    09:00 +8°C° 0 mm 4 mps 752 mmHg 67%
    10:00 +10°C° 0 mm 4 mps 752 mmHg 64%
    11:00 +10°C° 0 mm 5 mps 752 mmHg 61%
    12:00 +12°C° 0 mm 5 mps 752 mmHg 58%
    13:00 +12°C° 0 mm 5 mps 751 mmHg 57%
    14:00 +12°C° 0 mm 5 mps 751 mmHg 56%
    15:00 +13°C° 0 mm 5 mps 751 mmHg 56%
    16:00 +12°C° 0 mm 4 mps 750 mmHg 61%
    17:00 +11°C° 0 mm 3 mps 750 mmHg 66%
    18:00 +10°C° 0 mm 2 mps 750 mmHg 71%
    19:00 +9°C° 0 mm 2 mps 750 mmHg 75%
    20:00 +8°C° 0 mm 2 mps 750 mmHg 79%
    21:00 +7°C° 0 mm 2 mps 750 mmHg 83%
    22:00 +6°C° 0 mm 2 mps 750 mmHg 82%
    23:00 +6°C° 0 mm 2 mps 750 mmHg 82%

    8 April, Wednesday

    Time Temperature Precipitation Wind Pressure Humidity
    00:00 +6°C° 0 mm 2 mps 750 mmHg 81%
    01:00 +5°C° 0 mm 2 mps 750 mmHg 82%
    02:00 +5°C° 0 mm 2 mps 750 mmHg 84%
    03:00 +5°C° 0 mm 2 mps 750 mmHg 85%
    04:00 +5°C° 0 mm 2 mps 750 mmHg 85%
    05:00 +5°C° 0 mm 2 mps 750 mmHg 86%
    06:00 +5°C° 0 mm 2 mps 750 mmHg 86%
    07:00 +7°C° 0 mm 2 mps 750 mmHg 81%
    08:00 +9°C° 0 mm 3 mps 750 mmHg 76%
    09:00 +11°C° 0 mm 4 mps 750 mmHg 70%
    10:00 +12°C° 0 mm 4 mps 749 mmHg 68%
    11:00 +13°C° 0 mm 4 mps 749 mmHg 65%
    12:00 +13°C° 0 mm 4 mps 749 mmHg 62%
    13:00 +14°C° 0 mm 4 mps 749 mmHg 62%
    14:00 +14°C° 0 mm 4 mps 748 mmHg 62%
    15:00 +14°C° 0 mm 4 mps 748 mmHg 62%
    16:00 +13°C° 0 mm 4 mps 748 mmHg 67%
    17:00 +12°C° 0 mm 3 mps 748 mmHg 71%
    18:00 +11°C° 0 mm 3 mps 747 mmHg 75%
    19:00 +10°C° 0 mm 2 mps 747 mmHg 79%
    20:00 +8°C° 0 mm 2 mps 747 mmHg 82%
    21:00 +7°C° 0 mm 2 mps 747 mmHg 86%
    22:00 +7°C° 0 mm 2 mps 747 mmHg 86%
    23:00 +6°C° 0 mm 2 mps 747 mmHg 86%

    9 April, Thursday

    Time Temperature Precipitation Wind Pressure Humidity
    00:00 +6°C° 0 mm 2 mps 747 mmHg 86%
    01:00 +6°C° 0 mm 2 mps 747 mmHg 86%
    02:00 +7°C° 0 mm 1 mps 747 mmHg 86%
    03:00 +6°C° 0 mm 1 mps 747 mmHg 86%
    04:00 +6°C° 0 mm 1 mps 747 mmHg 85%
    05:00 +6°C° 0 mm 1 mps 747 mmHg 84%
    06:00 +7°C° 0 mm 1 mps 747 mmHg 83%
    07:00 +8°C° 0 mm 1 mps 748 mmHg 80%
    08:00 +9°C° 0 mm 1 mps 748 mmHg 76%
    09:00 +10°C° 0 mm 2 mps 748 mmHg 73%
    10:00 +12°C° 0 mm 2 mps 748 mmHg 71%
    11:00 +12°C° 0 mm 2 mps 748 mmHg 69%
    12:00 +13°C° 0 mm 2 mps 748 mmHg 67%
    13:00 +14°C° 0 mm 2 mps 748 mmHg 67%
    14:00 +14°C° 0 mm 2 mps 748 mmHg 67%
    15:00 +13°C° 0 mm 3 mps 747 mmHg 66%
    16:00 +12°C° 0 mm 3 mps 747 mmHg 71%
    17:00 +11°C° 0 mm 3 mps 747 mmHg 76%
    18:00 +10°C° 0 mm 3 mps 747 mmHg 80%
    19:00 +9°C° 0 mm 2 mps 747 mmHg 84%
    20:00 +8°C° 0 mm 2 mps 747 mmHg 88%
    21:00 +7°C° 0 mm 2 mps 747 mmHg 91%
    22:00 +7°C° 0 mm 2 mps 746 mmHg 92%
    23:00 +7°C° 0 mm 2 mps 746 mmHg 93%

    10 April, Friday

    Time Temperature Precipitation Wind Pressure Humidity
    00:00 +7°C° 0 mm 2 mps 746 mmHg 94%
    01:00 +7°C° 0 mm 2 mps 746 mmHg 94%
    02:00 +8°C° 0 mm 2 mps 745 mmHg 94%
    03:00 +8°C° 0 mm 2 mps 745 mmHg 95%
    04:00 +8°C° 0 mm 2 mps 745 mmHg 94%
    05:00 +8°C° 0 mm 2 mps 744 mmHg 94%
    06:00 +9°C° 0 mm 2 mps 744 mmHg 93%
    07:00 +10°C° 0 mm 3 mps 744 mmHg 88%
    08:00 +12°C° 0 mm 3 mps 744 mmHg 83%
    09:00 +13°C° 0 mm 4 mps 744 mmHg 78%
    10:00 +14°C° 0 mm 5 mps 744 mmHg 77%
    11:00 +14°C° 0 mm 5 mps 744 mmHg 75%
    12:00 +15°C° 0 mm 6 mps 744 mmHg 73%
    13:00 +14°C° 0 mm 6 mps 743 mmHg 75%
    14:00 +14°C° 0 mm 6 mps 743 mmHg 77%
    15:00 +14°C° 0 mm 7 mps 743 mmHg 79%
    16:00 +13°C° 0 mm 6 mps 743 mmHg 79%
    17:00 +13°C° 0 mm 6 mps 743 mmHg 80%
    18:00 +11°C° 0 mm 6 mps 743 mmHg 80%
    19:00 +10°C° 0 mm 6 mps 743 mmHg 82%
    20:00 +9°C° 0 mm 6 mps 744 mmHg 84%
    21:00 +8°C° 0 mm 7 mps 744 mmHg 86%
    22:00 +7°C° 0 mm 6 mps 744 mmHg 86%
    23:00 +7°C° 0 mm 6 mps 744 mmHg 87%
    Show more